Weather History for Fosston, MN

Change the Weather History Date:

Thursday, November 1, 2012

  Actual Average Record
Temperature  
Mean Temperature 30 °F -  
Max Temperature 35 °F 47 °F 71 °F (1950)
Min Temperature 26 °F 28 °F 1 °F (1984)
Degree Days  
Heating Degree Days 34    
Moisture  
Dew Point 24 °F    
Average Humidity 81    
Maximum Humidity 100    
Minimum Humidity 69    
Precipitation  
Precipitation 0.00 in - - ()
Sea Level Pressure  
Sea Level Pressure 30.09 in    
Wind  
Wind Speed 13 mph (North)    
Max Wind Speed 21 mph    
Max Gust Speed 26 mph    
Visibility 10 miles    
Events Snow    
Averages and records for this station are not official NWS values.
T = Trace of Precipitation, MM = Missing Value Source: NWS Daily Summary

Daily Weather History Graph

Daily Weather History Graph

Search for Another Location

Airport:

Trip Planner

Search our weather history database for the weather conditions in past years. The results will help you decide how hot, cold, wet, or windy it might be!

Date:

Astronomy

Nov. 01, 2012 Rise Set
Actual Time 8:07 AM CDT 6:04 PM CDT
Civil Twilight 7:35 AM CDT 6:36 PM CDT
Nautical Twilight 6:59 AM CDT 7:13 PM CDT
Astronomical Twilight 6:23 AM CDT 7:49 PM CDT
Moon 7:53 PM CDT (11/1) 10:50 AM CDT (11/1)
Length of Visible Light 11h 01m
Length of Day
9h 56m
Waning Gibbous, 93% of the Moon is Illuminated
Nov 1
Waning Gibbous
Nov 6
Last Quarter
Nov 13
New
Nov 20
First Quarter
Nov 28
Full

Hourly Weather History & Observations

Time (CDT) Temp. Windchill Dew Point Humidity Pressure Visibility Wind Dir Wind Speed Gust Speed Precip Events Conditions
12:15 AM 35.6 °F 27.5 °F 33.8 °F 93% 30.02 in 5.0 mi NNW 11.5 mph - N/A   Overcast
12:35 AM 35.6 °F 27.1 °F 33.8 °F 93% 30.02 in 3.0 mi NNW 12.7 mph 17.3 mph N/A   Overcast
12:55 AM 35.6 °F 25.5 °F 33.8 °F 93% 30.03 in 4.0 mi North 17.3 mph - N/A   Light Drizzle
1:15 AM 35.6 °F 25.5 °F 33.8 °F 93% 30.03 in 7.0 mi NNW 17.3 mph - N/A   Light Drizzle
1:35 AM 33.8 °F 23.5 °F 32.0 °F 93% 30.04 in 10.0 mi NNW 16.1 mph - N/A   Overcast
2:15 AM 33.8 °F 24.8 °F 30.2 °F 87% 30.04 in 10.0 mi NW 12.7 mph - N/A   Overcast
2:35 AM 33.8 °F 23.5 °F 30.2 °F 87% 30.04 in 10.0 mi NNW 16.1 mph 20.7 mph N/A   Overcast
2:55 AM 33.8 °F 23.5 °F 30.2 °F 87% 30.05 in 10.0 mi NNW 16.1 mph - N/A   Overcast
3:15 AM 32.0 °F 21.6 °F 28.4 °F 87% 30.05 in 7.0 mi NNW 15.0 mph - N/A Snow Light Snow
3:35 AM 30.2 °F 19.3 °F 30.2 °F 100% 30.05 in 10.0 mi NNW 15.0 mph - N/A   Overcast
3:55 AM 30.2 °F 18.9 °F 28.4 °F 93% 30.05 in 10.0 mi NNW 16.1 mph 20.7 mph N/A   Overcast
4:15 AM 30.2 °F 19.8 °F 28.4 °F 93% 30.05 in 10.0 mi NNW 13.8 mph - N/A   Overcast
4:35 AM 30.2 °F 18.9 °F 26.6 °F 86% 30.05 in 10.0 mi NNW 16.1 mph 23.0 mph N/A   Overcast
5:15 AM 30.2 °F 18.1 °F 24.8 °F 80% 30.07 in 10.0 mi NNW 18.4 mph 21.9 mph N/A   Overcast
5:35 AM 28.4 °F 16.2 °F 24.8 °F 86% 30.07 in 10.0 mi NNW 17.3 mph 20.7 mph N/A   Overcast
5:55 AM 28.4 °F 15.4 °F 23.0 °F 80% 30.08 in 10.0 mi NNW 19.6 mph 26.5 mph N/A   Overcast
6:15 AM 28.4 °F 16.2 °F 23.0 °F 80% 30.08 in 10.0 mi NNW 17.3 mph - N/A   Overcast
6:35 AM 28.4 °F 15.4 °F 23.0 °F 80% 30.08 in 10.0 mi North 19.6 mph 26.5 mph N/A   Overcast
6:55 AM 28.4 °F 17.5 °F 23.0 °F 80% 30.09 in 10.0 mi NNW 13.8 mph - N/A   Overcast
7:15 AM 28.4 °F 15.8 °F 21.2 °F 74% 30.09 in 10.0 mi NNW 18.4 mph 21.9 mph N/A   Overcast
7:35 AM 26.6 °F 14.7 °F 21.2 °F 80% 30.09 in 10.0 mi NNW 15.0 mph 25.3 mph N/A   Overcast
8:35 AM 26.6 °F 15.7 °F 21.2 °F 80% 30.09 in 10.0 mi NNW 12.7 mph - N/A   Overcast
9:15 AM 26.6 °F 14.7 °F 21.2 °F 80% 30.11 in 10.0 mi NNW 15.0 mph 23.0 mph N/A   Overcast
9:35 AM 26.6 °F 13.4 °F 21.2 °F 80% 30.11 in 10.0 mi North 18.4 mph - N/A   Overcast
9:55 AM 26.6 °F 13.8 °F 21.2 °F 80% 30.11 in 10.0 mi North 17.3 mph - N/A   Overcast
10:15 AM 26.6 °F 14.3 °F 21.2 °F 80% 30.11 in 10.0 mi NNW 16.1 mph 21.9 mph N/A   Overcast
10:35 AM 26.6 °F 12.7 °F 19.4 °F 74% 30.12 in 10.0 mi NNW 20.7 mph - N/A   Overcast
10:55 AM 26.6 °F 15.2 °F 21.2 °F 80% 30.12 in 10.0 mi NNW 13.8 mph - N/A   Overcast
11:16 AM 26.6 °F 14.7 °F 21.2 °F 80% 30.12 in 10.0 mi NNW 15.0 mph - N/A   Overcast
11:35 AM 26.6 °F 15.7 °F 21.2 °F 80% 30.12 in 10.0 mi NNW 12.7 mph 18.4 mph N/A   Overcast
11:55 AM 28.4 °F 17.5 °F 21.2 °F 74% 30.12 in 10.0 mi NNW 13.8 mph 19.6 mph N/A   Overcast
12:16 PM 26.6 °F 14.7 °F 21.2 °F 80% 30.12 in 10.0 mi NW 15.0 mph - N/A   Overcast
12:35 PM 28.4 °F 17.0 °F 21.2 °F 74% 30.11 in 10.0 mi NNW 15.0 mph - N/A   Overcast
1:16 PM 28.4 °F 18.0 °F 21.2 °F 74% 30.10 in 10.0 mi North 12.7 mph 20.7 mph N/A   Overcast
1:35 PM 28.4 °F 17.0 °F 21.2 °F 74% 30.09 in 10.0 mi NNW 15.0 mph - N/A   Overcast
1:55 PM 28.4 °F 18.5 °F 21.2 °F 74% 30.09 in 10.0 mi NW 11.5 mph - N/A   Overcast
2:15 PM 30.2 °F 20.8 °F 21.2 °F 69% 30.09 in 10.0 mi NNW 11.5 mph - N/A   Overcast
2:35 PM 30.2 °F 21.3 °F 21.2 °F 69% 30.08 in 10.0 mi North 10.4 mph - N/A   Overcast
2:55 PM 30.2 °F 21.9 °F 21.2 °F 69% 30.07 in 10.0 mi NNW 9.2 mph - N/A   Overcast
3:35 PM 30.2 °F 25.4 °F 21.2 °F 69% 30.08 in 10.0 mi North 4.6 mph 9.2 mph N/A   Overcast
3:55 PM 30.2 °F 20.2 °F 21.2 °F 69% 30.09 in 10.0 mi North 12.7 mph - N/A   Overcast
4:15 PM 30.2 °F - 21.2 °F 69% 30.09 in 10.0 mi Calm Calm - N/A   Overcast
4:35 PM 30.2 °F 22.6 °F 21.2 °F 69% 30.09 in 10.0 mi NNW 8.1 mph - N/A   Overcast
4:55 PM 30.2 °F 21.3 °F 21.2 °F 69% 30.09 in 10.0 mi North 10.4 mph - N/A   Overcast
5:15 PM 30.2 °F 21.3 °F 21.2 °F 69% 30.09 in 10.0 mi NNW 10.4 mph - N/A   Overcast
5:35 PM 30.2 °F 21.9 °F 21.2 °F 69% 30.09 in 10.0 mi North 9.2 mph - N/A   Overcast
5:55 PM 30.2 °F 21.9 °F 23.0 °F 75% 30.09 in 10.0 mi North 9.2 mph - N/A   Overcast
6:15 PM 28.4 °F 19.1 °F 21.2 °F 74% 30.09 in 10.0 mi North 10.4 mph - N/A   Mostly Cloudy
6:28 PM 26.6 °F 17.5 °F 19.4 °F 74% 30.09 in 10.0 mi North 9.2 mph - N/A   Scattered Clouds
6:55 PM 26.6 °F 22.6 °F 19.4 °F 74% 30.09 in 10.0 mi NNE 3.5 mph - N/A   Scattered Clouds
7:07 PM 26.6 °F 22.6 °F 21.2 °F 80% 30.10 in 10.0 mi North 3.5 mph - N/A   Mostly Cloudy
7:35 PM 26.6 °F 22.6 °F 23.0 °F 86% 30.10 in 10.0 mi NNE 3.5 mph - N/A   Overcast
7:54 PM 26.6 °F 17.5 °F 24.8 °F 93% 30.10 in 10.0 mi North 9.2 mph - N/A   Overcast
8:15 PM 28.4 °F 20.4 °F 21.2 °F 74% 30.11 in 10.0 mi North 8.1 mph - N/A   Overcast
8:34 PM 26.6 °F 16.8 °F 21.2 °F 80% 30.11 in 10.0 mi North 10.4 mph - N/A   Overcast
8:44 PM 26.6 °F 16.8 °F 21.2 °F 80% 30.11 in 10.0 mi North 10.4 mph - N/A   Overcast
9:21 PM 26.6 °F 19.1 °F 23.0 °F 86% 30.10 in 10.0 mi North 6.9 mph - N/A   Overcast
9:40 PM 26.6 °F 18.2 °F 24.8 °F 93% 30.11 in 10.0 mi NNE 8.1 mph - N/A   Overcast
9:55 PM 26.6 °F - 24.8 °F 93% 30.11 in 10.0 mi Calm Calm - N/A   Overcast
10:10 PM 26.6 °F 20.0 °F 23.0 °F 86% 30.11 in 10.0 mi NE 5.8 mph - N/A   Overcast
10:34 PM 26.6 °F 19.1 °F 23.0 °F 86% 30.11 in 10.0 mi NE 6.9 mph - N/A   Overcast
10:55 PM 26.6 °F - 23.0 °F 86% 30.11 in 10.0 mi Calm Calm - N/A   Overcast
11:15 PM 26.6 °F 16.8 °F 21.2 °F 80% 30.10 in 10.0 mi NE 10.4 mph - N/A   Overcast
11:35 PM 26.6 °F 17.5 °F 21.2 °F 80% 30.11 in 10.0 mi NE 9.2 mph 17.3 mph N/A   Overcast
11:55 PM 26.6 °F 18.2 °F 21.2 °F 80% 30.11 in 10.0 mi NE 8.1 mph - N/A   Overcast